Borger, TX

11:02 AM CDT on May 23, 2017 (GMT -0500)
Hutchinson County

Weather History for KBGD - November, 2012

Change the Weather History Date:

Sunday, November 18, 2012

  Actual Average Record
Temperature  
Mean Temperature 61 °F 48 °F  
Max Temperature 74 °F 60 °F 79 °F (2007)
Min Temperature 47 °F 35 °F 16 °F (1980)
Degree Days  
Heating Degree Days 4 17  
Month to date heating degree days 164 253  
Since 1 July heating degree days 375 474  
Cooling Degree Days 0 0  
Month to date cooling degree days 13 0  
Year to date cooling degree days 2524 1835  
Growing Degree Days 10 (Base 50)    
Moisture  
Dew Point 43 °F    
Average Humidity 51    
Maximum Humidity 72    
Minimum Humidity 29    
Precipitation  
Precipitation 0.00 in 0.03 in 0.57 in (1984)
Month to date precipitation T 0.57  
Year to date precipitation 15.62 20.68  
Snow  
Snow 0.00 in - 3.30 in (1972)
Month to date snowfall 0.0  
Since 1 July snowfall 0.0  
Since 1 September snowfall 0.0  
Snow Depth 0.00 in    
Sea Level Pressure  
Sea Level Pressure 29.99 in    
Wind  
Wind Speed 12 mph (SSW)    
Max Wind Speed 26 mph    
Max Gust Speed 36 mph    
Visibility 10 miles    
Events      
T = Trace of Precipitation, MM = Missing Value Source: NWS Daily Summary

Daily Weather History Graph

Daily Weather History Graph

Search for Another Location

Airport or City:

Trip Planner

Search our weather history database for the weather conditions in past years. The results will help you decide how hot, cold, wet, or windy it might be!

Date:

Astronomy

Nov. 18, 2012 Rise Set
Actual Time 7:24 AM CST 5:36 PM CST
Civil Twilight 6:57 AM CST 6:03 PM CST
Nautical Twilight 6:26 AM CST 6:34 PM CST
Astronomical Twilight 5:56 AM CST 7:05 PM CST
Moon 11:55 AM CST (11/18) 10:55 PM CST (11/18)
Length of Visible Light 11h 06m
Length of Day
10h 11m
Waxing Crescent, 30% of the Moon is Illuminated
Nov 18
Waxing Crescent
Nov 20
First Quarter
Nov 28
Full
Dec 6
Last Quarter
Dec 13
New

Hourly Weather History & Observations

Time (CST) Temp. Dew Point Humidity Pressure Visibility Wind Dir Wind Speed Gust Speed Precip Events Conditions
12:51 AM 53.1 °F 39.9 °F 61% 30.05 in 10.0 mi South 12.7 mph - N/A   Clear
1:51 AM 54.0 °F 39.9 °F 59% 30.04 in 10.0 mi South 10.4 mph 18.4 mph N/A   Clear
2:51 AM 53.1 °F 39.9 °F 61% 30.03 in 10.0 mi SSW 6.9 mph - N/A   Clear
3:51 AM 52.0 °F 39.9 °F 63% 30.03 in 10.0 mi SSW 5.8 mph - N/A   Clear
5:51 AM 48.9 °F 39.9 °F 71% 30.02 in 10.0 mi South 10.4 mph - N/A   Clear
6:51 AM 48.0 °F 39.9 °F 74% 30.02 in 10.0 mi South 10.4 mph - N/A   Clear
7:51 AM 48.9 °F 39.9 °F 71% 30.01 in 10.0 mi South 12.7 mph 17.3 mph N/A   Unknown
8:51 AM 50.0 °F 41.0 °F 71% 30.02 in 10.0 mi South 9.2 mph 17.3 mph N/A   Clear
9:51 AM 55.0 °F 42.1 °F 62% 30.01 in 10.0 mi SSW 5.8 mph 16.1 mph N/A   Clear
1:51 PM 72.0 °F 37.9 °F 29% 29.92 in 10.0 mi SW 12.7 mph 23.0 mph N/A   Partly Cloudy
2:51 PM 71.1 °F 39.0 °F 31% 29.92 in 10.0 mi SW 18.4 mph 25.3 mph N/A   Overcast
3:51 PM 70.0 °F 39.9 °F 33% 29.93 in 10.0 mi SW 17.3 mph 27.6 mph N/A   Scattered Clouds
4:51 PM 68.0 °F 44.1 °F 42% 29.93 in 10.0 mi SSW 15.0 mph 26.5 mph N/A   Overcast
5:51 PM 64.9 °F 44.1 °F 47% 29.96 in 10.0 mi South 9.2 mph - N/A   Clear
6:51 PM 60.1 °F 48.9 °F 67% 29.99 in 10.0 mi South 12.7 mph - N/A   Clear
7:51 PM 60.1 °F 48.0 °F 64% 30.00 in 10.0 mi SSW 12.7 mph 19.6 mph N/A   Clear
8:51 PM 60.1 °F 48.0 °F 64% 30.00 in 10.0 mi SSW 13.8 mph - N/A   Clear
9:51 PM 57.9 °F 46.9 °F 67% 30.00 in 10.0 mi SSW 12.7 mph 20.7 mph N/A   Clear
10:51 PM 55.9 °F 46.0 °F 69% 29.99 in 10.0 mi SW 10.4 mph - N/A   Clear
11:51 PM 57.0 °F 45.0 °F 64% 29.98 in 10.0 mi SW 13.8 mph 23.0 mph N/A   Clear